Погода в Рыбушке

Россия / Саратовская область     51°16′46″N   45°26′32″E
темп.,
°C
ветер,
м/с
пор.,
м/с
влажн.,
%
обл.,
%
осадки,
мм/ч
давл.,
гПа
погр.,
м
16 мая, вс
вс1601:00+18ююв37535 0.0 101592
04:00+17ю3446100 0.0 101658
07:00+17юв3555100 0.0 1016101
10:00+24ююв484297 0.0 1017406
13:00+27ююв583691 0.0 1016906
16:00+29ююв5933100 0.0 10152199
19:00+26юв22488 0.0 101418
22:00+21в22465 0.0 101511
17 мая, пн
пн1701:00+20юв22495 0.0 101511
04:00+18в225298 0.0 101611
07:00+19в3456100 0.0 101663
10:00+23вюв51141100 0.0 1016407
13:00+28юв711305 0.0 10161435
16:00+28юв68335 0.0 10152723
19:00+24вюв4104647 0.0 1015226
22:00+19в334654 0.0 101518
18 мая, вт
вт1801:00+17всв334846 0.0 101531
04:00+15всв345715 0.0 101443
07:00+16всв376428 0.0 1014128
10:00+21в69485 0.0 1014322
13:00+28юв612305 0.0 10131497
16:00+29вюв711312 0.0 10122932
19:00+25вюв412451 0.0 1012244
22:00+20в417490 0.0 1012330
19 мая, ср
ср1901:00+18вюв225192 0.0 101224
04:00+17в46495 0.0 101181
07:00+17всв411590 0.0 1011241
10:00+23в611490 0.0 1011483
13:00+28вюв81240100 0.0 10101410
16:00+28юв91243100 0.0 10091976
19:00+24юв7164630 0.0 1008465
22:00+17з357942 0.7 1010100
20 мая, чт
чт2001:00+15зсз4894100 2.2 1011216
04:00+14зюз3591100 5.3 1013247
07:00+15ююз378364 0.4 1014364
10:00+18ююз466388 0.4 10141050
13:00+19ю5757100 0.4 10151602
16:00+18ююз35626 0.7 1016965
19:00+17юз35705 0.6 1016395
22:00+14юз22795 0.6 101712